Schneifelwetter: Wetterstation Hallschlag, 537 m . NN
Wetterdaten: Donnerstag, 09.10.2008
Datum Zeit Temp. A. Temp. 2 Feuchte A. Luftdruck Regen Wind Richtung Richtung Sonnenschein Helligkeit T Regen Taupunkt Windchill
09.10.2008 00:01 9,2 C 8,9 C 95 % 1022 hPa 0,0 l/m 15,0 km/h (3 Bft) N22.5 5 0 min 0 lux 0,00 min 8,4 C 4,2 C
09.10.2008 00:16 9,1 C 8,9 C 95 % 1022 hPa 0,0 l/m 14,9 km/h (3 Bft) N45 5 0 min 0 lux 0,00 min 8,3 C 4,1 C
09.10.2008 00:31 9,1 C 8,9 C 96 % 1022 hPa 0,0 l/m 13,1 km/h (3 Bft) N45 5 0 min 0 lux 0,00 min 8,5 C 4,9 C
09.10.2008 00:46 9,1 C 9,0 C 96 % 1022 hPa 0,0 l/m 15,3 km/h (3 Bft) N45 10 0 min 0 lux 0,00 min 8,5 C 3,9 C
09.10.2008 01:01 9,1 C 8,9 C 95 % 1022 hPa 0,0 l/m 15,7 km/h (3 Bft) N-NO45 15 0 min 0 lux 0,00 min 8,3 C 3,7 C
09.10.2008 01:16 9,0 C 8,9 C 96 % 1022 hPa 0,0 l/m 13,3 km/h (3 Bft) N-NO22.5 15 0 min 0 lux 0,00 min 8,4 C 4,7 C
09.10.2008 01:31 9,0 C 8,9 C 96 % 1022 hPa 0,0 l/m 23,3 km/h (4 Bft) N-NO67.5 20 0 min 0 lux 0,00 min 8,4 C 1,0 C
09.10.2008 01:47 8,9 C 8,9 C 96 % 1023 hPa 0,0 l/m 16,8 km/h (3 Bft) N-NO22.5 15 0 min 0 lux 0,00 min 8,3 C 3,0 C
09.10.2008 02:02 8,8 C 8,9 C 96 % 1023 hPa 0,0 l/m 21,8 km/h (4 Bft) N-NO22.5 25 0 min 0 lux 0,00 min 8,2 C 1,1 C
09.10.2008 02:17 8,8 C 8,8 C 96 % 1023 hPa 0,0 l/m 21,9 km/h (4 Bft) N-NO22.5 15 0 min 0 lux 0,00 min 8,2 C 1,1 C
09.10.2008 02:32 8,8 C 8,8 C 97 % 1023 hPa 0,0 l/m 15,7 km/h (3 Bft) N-NO22.5 15 0 min 0 lux 0,00 min 8,4 C 3,4 C
09.10.2008 02:47 8,8 C 8,8 C 97 % 1023 hPa 0,0 l/m 16,0 km/h (3 Bft) N-NO22.5 25 0 min 0 lux 0,00 min 8,4 C 3,3 C
09.10.2008 03:02 8,8 C 8,7 C 97 % 1023 hPa 0,0 l/m 14,5 km/h (3 Bft) N-NO45 20 0 min 0 lux 0,00 min 8,4 C 3,9 C
09.10.2008 03:17 8,7 C 8,7 C 96 % 1023 hPa 0,0 l/m 16,6 km/h (3 Bft) N-NO22.5 15 0 min 0 lux 0,00 min 8,1 C 2,9 C
09.10.2008 03:32 8,6 C 8,6 C 96 % 1023 hPa 0,0 l/m 14,6 km/h (3 Bft) N-NO22.5 20 0 min 0 lux 0,00 min 8,0 C 3,6 C
09.10.2008 03:47 8,6 C 8,6 C 96 % 1023 hPa 0,0 l/m 13,5 km/h (3 Bft) N-NO22.5 15 0 min 0 lux 0,00 min 8,0 C 4,1 C
09.10.2008 04:02 8,6 C 8,6 C 96 % 1024 hPa 0,0 l/m 17,0 km/h (3 Bft) N-NO67.5 20 0 min 0 lux 0,00 min 8,0 C 2,6 C
09.10.2008 04:17 8,5 C 8,5 C 95 % 1024 hPa 0,0 l/m 17,1 km/h (3 Bft) N-NO22.5 20 0 min 0 lux 0,00 min 7,7 C 2,4 C
09.10.2008 04:32 8,4 C 8,4 C 96 % 1024 hPa 0,0 l/m 14,0 km/h (3 Bft) N-NO67.5 25 0 min 0 lux 0,00 min 7,8 C 3,7 C
09.10.2008 04:47 8,4 C 8,4 C 96 % 1024 hPa 0,0 l/m 13,5 km/h (3 Bft) N-NO22.5 25 0 min 0 lux 0,00 min 7,8 C 3,9 C
09.10.2008 05:02 8,4 C 8,3 C 96 % 1024 hPa 0,0 l/m 17,6 km/h (3 Bft) N-NO22.5 25 0 min 0 lux 0,00 min 7,8 C 2,1 C
09.10.2008 05:17 8,4 C 8,3 C 96 % 1024 hPa 0,0 l/m 15,8 km/h (3 Bft) N-NO22.5 20 0 min 0 lux 0,00 min 7,8 C 2,8 C
09.10.2008 05:32 8,4 C 8,3 C 96 % 1024 hPa 0,0 l/m 11,8 km/h (2 Bft) N-NO67.5 20 0 min 0 lux 0,00 min 7,8 C 4,8 C
09.10.2008 05:47 8,4 C 8,2 C 96 % 1024 hPa 0,0 l/m 13,4 km/h (3 Bft) N22.5 10 0 min 0 lux 0,00 min 7,8 C 3,9 C
09.10.2008 06:02 8,3 C 8,2 C 96 % 1024 hPa 0,0 l/m 17,4 km/h (3 Bft) N-NO22.5 20 0 min 0 lux 0,00 min 7,7 C 2,1 C
09.10.2008 06:17 8,2 C 8,1 C 96 % 1024 hPa 0,0 l/m 17,5 km/h (3 Bft) N-NO22.5 20 0 min 0 lux 0,00 min 7,6 C 1,9 C
09.10.2008 06:32 8,2 C 8,1 C 96 % 1025 hPa 0,0 l/m 16,7 km/h (3 Bft) N-NO22.5 15 0 min 0 lux 0,00 min 7,6 C 2,2 C
09.10.2008 06:40 8,1 C 7,9 C 95 % 1025 hPa 0,0 l/m 16,5 km/h (3 Bft) N-NO45 25 0 min 0 lux 0,00 min 7,3 C 2,2 C
09.10.2008 06:55 8,0 C 7,8 C 95 % 1025 hPa 0,0 l/m 22,4 km/h (4 Bft) N-NO22.5 30 0 min 0 lux 0,00 min 7,2 C -0,1 C
09.10.2008 07:10 7,9 C 7,8 C 96 % 1025 hPa 0,0 l/m 16,2 km/h (3 Bft) N-NO22.5 30 0 min 0 lux 0,00 min 7,3 C 2,1 C
09.10.2008 07:25 7,9 C 7,8 C 96 % 1025 hPa 0,0 l/m 12,2 km/h (2 Bft) N22.5 10 0 min 47 lux 0,00 min 7,3 C 4,0 C
09.10.2008 07:40 7,9 C 7,8 C 96 % 1025 hPa 0,0 l/m 12,3 km/h (3 Bft) N67.5 5 0 min 98 lux 0,00 min 7,3 C 3,9 C
09.10.2008 07:55 7,9 C 7,8 C 96 % 1025 hPa 0,0 l/m 13,0 km/h (3 Bft) N45 10 0 min 678 lux 0,00 min 7,3 C 3,6 C
09.10.2008 08:10 7,9 C 7,6 C 96 % 1026 hPa 0,0 l/m 12,5 km/h (3 Bft) N-NO22.5 25 0 min 1,77 klux 0,00 min 7,3 C 3,8 C
09.10.2008 08:25 7,9 C 7,6 C 96 % 1026 hPa 0,0 l/m 8,9 km/h (2 Bft) N-NO22.5 15 0 min 4,69 klux 0,00 min 7,3 C 6,0 C
09.10.2008 08:40 7,8 C 7,3 C 96 % 1026 hPa 0,0 l/m 8,8 km/h (2 Bft) N-NO22.5 15 0 min 5,97 klux 0,00 min 7,2 C 6,0 C
09.10.2008 08:55 8,0 C 7,9 C 96 % 1026 hPa 0,0 l/m 7,5 km/h (2 Bft) N-NO22.5 15 0 min 4,41 klux 0,00 min 7,4 C 7,1 C
09.10.2008 09:10 8,2 C 8,2 C 96 % 1026 hPa 0,0 l/m 11,2 km/h (2 Bft) N-NO22.5 25 0 min 5,31 klux 0,00 min 7,6 C 4,9 C
09.10.2008 09:25 8,4 C 8,7 C 95 % 1027 hPa 0,0 l/m 13,3 km/h (3 Bft) N-NO22.5 30 0 min 7,81 klux 0,00 min 7,6 C 4,0 C
09.10.2008 09:40 8,6 C 9,0 C 94 % 1027 hPa 0,0 l/m 16,0 km/h (3 Bft) N-NO22.5 25 0 min 6,81 klux 0,00 min 7,7 C 3,0 C
09.10.2008 09:55 8,8 C 9,2 C 93 % 1027 hPa 0,0 l/m 19,3 km/h (3 Bft) N-NO67.5 30 0 min 13,5 klux 0,00 min 7,7 C 2,0 C
09.10.2008 10:10 8,9 C 9,6 C 92 % 1027 hPa 0,0 l/m 18,3 km/h (3 Bft) NO22.5 35 0 min 10,2 klux 0,00 min 7,7 C 2,5 C
09.10.2008 10:25 9,2 C 9,9 C 91 % 1028 hPa 0,0 l/m 14,1 km/h (3 Bft) NO45 35 0 min 13,0 klux 0,00 min 7,8 C 4,6 C
09.10.2008 10:40 9,5 C 10,4 C 90 % 1028 hPa 0,0 l/m 17,4 km/h (3 Bft) N-NO22.5 25 0 min 20,7 klux 0,00 min 7,9 C 3,6 C
09.10.2008 10:55 9,8 C 11,2 C 89 % 1028 hPa 0,0 l/m 17,2 km/h (3 Bft) N-NO45 30 0 min 20,3 klux 0,00 min 8,1 C 4,0 C
09.10.2008 11:10 9,9 C 11,3 C 88 % 1028 hPa 0,0 l/m 16,6 km/h (3 Bft) NO45 55 0 min 17,7 klux 0,00 min 8,0 C 4,4 C
09.10.2008 11:25 10,4 C 12,3 C 88 % 1028 hPa 0,0 l/m 17,8 km/h (3 Bft) N-NO22.5 30 0 min 32,6 klux 0,00 min 8,5 C 4,5 C
09.10.2008 11:40 11,0 C 13,8 C 86 % 1028 hPa 0,0 l/m 14,3 km/h (3 Bft) NO45 35 0 min 39,7 klux 0,00 min 8,7 C 6,6 C
09.10.2008 11:55 10,8 C 13,5 C 83 % 1029 hPa 0,0 l/m 14,2 km/h (3 Bft) N22.5 5 0 min 33,4 klux 0,00 min 8,0 C 6,4 C
09.10.2008 12:10 11,6 C 16,5 C 82 % 1029 hPa 0,0 l/m 15,0 km/h (3 Bft) N-NO22.5 25 15 min 80,3 klux 0,00 min 8,6 C 7,1 C
09.10.2008 12:25 11,3 C 16,2 C 79 % 1029 hPa 0,0 l/m 18,5 km/h (3 Bft) N-NO22.5 30 0 min 33,2 klux 0,00 min 7,8 C 5,4 C
09.10.2008 12:40 12,0 C 17,5 C 79 % 1029 hPa 0,0 l/m 14,3 km/h (3 Bft) NO67.5 55 15 min 83,5 klux 0,00 min 8,5 C 7,8 C
09.10.2008 12:55 12,3 C 17,0 C 77 % 1029 hPa 0,0 l/m 16,0 km/h (3 Bft) O-SO45 105 15 min 64,3 klux 0,00 min 8,4 C 7,6 C
09.10.2008 13:10 11,6 C 15,5 C 78 % 1029 hPa 0,0 l/m 13,9 km/h (3 Bft) N-NO22.5 30 0 min 24,9 klux 0,00 min 7,9 C 7,5 C
09.10.2008 13:25 11,5 C 14,6 C 79 % 1029 hPa 0,0 l/m 13,8 km/h (3 Bft) N-NO22.5 30 0 min 27,2 klux 0,00 min 8,0 C 7,4 C
09.10.2008 13:40 11,8 C 15,3 C 79 % 1029 hPa 0,0 l/m 11,3 km/h (2 Bft) NO22.5 50 0 min 53,5 klux 0,00 min 8,3 C 8,9 C
09.10.2008 13:55 11,9 C 14,7 C 78 % 1029 hPa 0,0 l/m 13,3 km/h (3 Bft) NO22.5 55 0 min 23,6 klux 0,00 min 8,2 C 8,1 C
09.10.2008 14:10 11,8 C 14,7 C 76 % 1029 hPa 0,0 l/m 13,4 km/h (3 Bft) N-NO 25 0 min 25,5 klux 0,00 min 7,7 C 8,0 C
09.10.2008 14:25 11,6 C 14,2 C 78 % 1029 hPa 0,0 l/m 14,2 km/h (3 Bft) NO45 35 0 min 20,2 klux 0,00 min 7,9 C 7,4 C
09.10.2008 14:40 12,1 C 16,3 C 78 % 1029 hPa 0,0 l/m 14,6 km/h (3 Bft) N67.5 350 15 min 75,6 klux 0,00 min 8,4 C 7,8 C
09.10.2008 14:55 11,9 C 15,9 C 74 % 1029 hPa 0,0 l/m 16,5 km/h (3 Bft) N-NO67.5 15 0 min 26,8 klux 0,00 min 7,4 C 6,9 C
09.10.2008 15:10 11,8 C 16,3 C 75 % 1030 hPa 0,0 l/m 19,0 km/h (3 Bft) N45 5 0 min 48,7 klux 0,00 min 7,5 C 5,9 C
09.10.2008 15:25 11,7 C 15,3 C 78 % 1030 hPa 0,0 l/m 18,6 km/h (3 Bft) N-NO22.5 25 0 min 20,3 klux 0,00 min 8,0 C 5,9 C
09.10.2008 15:40 11,8 C 16,3 C 77 % 1030 hPa 0,0 l/m 18,0 km/h (3 Bft) N-NO22.5 25 15 min 62,6 klux 0,00 min 7,9 C 6,2 C
09.10.2008 15:55 11,6 C 15,3 C 77 % 1030 hPa 0,0 l/m 16,6 km/h (3 Bft) N-NO45 30 0 min 19,6 klux 0,00 min 7,7 C 6,5 C
09.10.2008 16:10 11,0 C 14,8 C 77 % 1030 hPa 0,0 l/m 16,2 km/h (3 Bft) N-NO22.5 25 0 min 42,9 klux 0,00 min 7,1 C 5,9 C
09.10.2008 16:25 11,2 C 18,0 C 77 % 1030 hPa 0,0 l/m 10,7 km/h (2 Bft) N22.5 10 0 min 42,6 klux 0,00 min 7,3 C 8,5 C
09.10.2008 16:40 11,3 C 19,3 C 76 % 1030 hPa 0,0 l/m 15,0 km/h (3 Bft) N-NO45 30 0 min 40,9 klux 0,00 min 7,2 C 6,7 C
09.10.2008 16:55 11,2 C 18,2 C 77 % 1030 hPa 0,0 l/m 14,6 km/h (3 Bft) NO22.5 35 0 min 36,8 klux 0,00 min 7,3 C 6,7 C
09.10.2008 17:10 10,8 C 16,5 C 78 % 1030 hPa 0,0 l/m 8,9 km/h (2 Bft) N-NO22.5 25 0 min 32,7 klux 0,00 min 7,1 C 9,1 C
09.10.2008 17:25 11,2 C 18,5 C 78 % 1030 hPa 0,0 l/m 12,0 km/h (2 Bft) N-NO45 15 0 min 35,6 klux 0,00 min 7,5 C 7,9 C
09.10.2008 17:40 10,8 C 14,2 C 78 % 1030 hPa 0,0 l/m 15,6 km/h (3 Bft) NO22.5 45 0 min 7,77 klux 0,00 min 7,1 C 5,9 C
09.10.2008 17:55 10,0 C 12,6 C 80 % 1030 hPa 0,0 l/m 6,2 km/h (2 Bft) N-NO22.5 30 0 min 13,6 klux 0,00 min 6,7 C 10,0 C
09.10.2008 18:10 9,6 C 11,8 C 81 % 1030 hPa 0,0 l/m 2,8 km/h (1 Bft) NO 45 0 min 11,0 klux 0,00 min 6,5 C 9,6 C
09.10.2008 18:25 9,1 C 10,1 C 83 % 1030 hPa 0,0 l/m 3,6 km/h (1 Bft) NO 45 0 min 8,86 klux 0,00 min 6,4 C 9,1 C
09.10.2008 18:40 8,5 C 8,5 C 84 % 1030 hPa 0,0 l/m 0,2 km/h (0 Bft) NO 45 0 min 4,90 klux 0,00 min 6,0 C 8,5 C
09.10.2008 18:55 7,8 C 7,2 C 85 % 1030 hPa 0,0 l/m 0,0 km/h (0 Bft) NO 45 0 min 1,43 klux 0,00 min 5,4 C 7,8 C
09.10.2008 19:10 7,1 C 6,0 C 86 % 1030 hPa 0,0 l/m 0,0 km/h (0 Bft) NO 45 0 min 505 lux 0,00 min 4,9 C 7,1 C
09.10.2008 19:25 6,2 C 5,0 C 87 % 1030 hPa 0,0 l/m 0,0 km/h (0 Bft) NO 45 0 min 38 lux 0,00 min 4,2 C 6,2 C
09.10.2008 19:40 5,6 C 4,2 C 88 % 1030 hPa 0,0 l/m 3,6 km/h (1 Bft) NO 45 0 min 0 lux 0,00 min 3,8 C 5,6 C
09.10.2008 19:56 4,9 C 3,6 C 89 % 1031 hPa 0,0 l/m 1,5 km/h (1 Bft) NO 45 0 min 0 lux 0,00 min 3,2 C 4,9 C
09.10.2008 20:11 4,5 C 3,2 C 90 % 1031 hPa 0,0 l/m 0,9 km/h (0 Bft) NO 45 0 min 0 lux 0,00 min 3,0 C 4,5 C
09.10.2008 20:26 4,0 C 2,6 C 91 % 1031 hPa 0,0 l/m 0,0 km/h (0 Bft) NO 45 0 min 0 lux 0,00 min 2,7 C 4,0 C
09.10.2008 20:41 3,7 C 2,2 C 91 % 1031 hPa 0,0 l/m 0,0 km/h (0 Bft) NO 45 0 min 0 lux 0,00 min 2,4 C 3,7 C
09.10.2008 20:56 3,5 C 1,8 C 92 % 1031 hPa 0,0 l/m 0,4 km/h (0 Bft) NO 45 0 min 0 lux 0,00 min 2,3 C 3,5 C
09.10.2008 21:11 3,1 C 1,5 C 92 % 1031 hPa 0,0 l/m 0,0 km/h (0 Bft) NO 45 0 min 0 lux 0,00 min 1,9 C 3,1 C
09.10.2008 21:26 2,7 C 0,9 C 93 % 1031 hPa 0,0 l/m 0,0 km/h (0 Bft) NO 45 0 min 0 lux 0,00 min 1,7 C 2,7 C
09.10.2008 21:41 2,5 C 0,8 C 93 % 1031 hPa 0,0 l/m 0,2 km/h (0 Bft) NO 45 0 min 0 lux 0,00 min 1,5 C 2,5 C
09.10.2008 21:56 2,3 C 0,7 C 94 % 1031 hPa 0,0 l/m 2,8 km/h (1 Bft) NO 45 0 min 0 lux 0,00 min 1,4 C 2,3 C
09.10.2008 22:11 2,1 C 0,5 C 93 % 1031 hPa 0,0 l/m 0,0 km/h (0 Bft) NO 45 0 min 0 lux 0,00 min 1,1 C 2,1 C
09.10.2008 22:26 1,9 C 0,5 C 94 % 1031 hPa 0,0 l/m 0,0 km/h (0 Bft) NO 45 0 min 0 lux 0,00 min 1,0 C 1,9 C
09.10.2008 22:41 2,1 C 0,8 C 95 % 1032 hPa 0,0 l/m 6,1 km/h (2 Bft) NO 45 0 min 0 lux 0,00 min 1,4 C 2,1 C
09.10.2008 22:56 2,2 C 1,0 C 95 % 1032 hPa 0,0 l/m 2,2 km/h (1 Bft) NO 45 0 min 0 lux 0,00 min 1,5 C 2,2 C
09.10.2008 23:11 2,3 C 1,4 C 96 % 1032 hPa 0,0 l/m 0,0 km/h (0 Bft) NO 45 0 min 0 lux 0,00 min 1,7 C 2,3 C
09.10.2008 23:26 2,4 C 1,5 C 96 % 1032 hPa 0,0 l/m 3,6 km/h (1 Bft) NO 45 0 min 0 lux 0,00 min 1,8 C 2,4 C
09.10.2008 23:41 2,4 C 1,7 C 96 % 1032 hPa 0,0 l/m 0,0 km/h (0 Bft) NO 45 0 min 0 lux 0,00 min 1,8 C 2,4 C
09.10.2008 23:56 2,5 C 1,7 C 96 % 1032 hPa 0,0 l/m 0,0 km/h (0 Bft) NO 45 0 min 0 lux 0,00 min 1,9 C 2,5 C
_ Min-Zeit 22:26 22:11 14:55 00:01 - 18:55 - - - - - 22:26 06:55
Minimum _ 1,9 C 0,5 C 74 % 1022 hPa - 0,0 km/h (0 Bft) - - - - - 1,0 C -0,1 C
_ Max-Zeit 12:55 16:40 02:32 22:41 00:01 01:31 - - 12:10 12:40 00:01 11:40 17:55
Maximum _ 12,3 C 19,3 C 97 % 1032 hPa 0,0 l/m 23,3 km/h
N-NO (4 Bft)
- - 15 min 83,5 klux 0,00 min 8,7 C 10,0 C
Durchschnitt _ 8,3 C 9,3 C 89 % 1028 hPa #0,0 l/m 11,6 km/h (2 Bft) N-NO - #1:15 h 12,5 klux #0 min. 6,6 C 4,7 C